Regional Weather Roundup
Issued by NWS

Home | Current Version | Previous Version | Graphics & Text | Print | Product List | Glossary On
Versions: 1 2 3 4 5 6 7 8 9 10 11 12 13 14 15 16 17 18 19 20 21 22 23 24 25 26 27 28 29 30 31 32 33 34 35 36 37 38 39 40 41 42 43 44 45 46 47 48 49 50
977
ASUS43 KLOT 241308
RWRIL

ILLINOIS REGIONAL WEATHER ROUNDUP
NATIONAL WEATHER SERVICE CHICAGO/ROMEOVILLE IL
700 AM CST FRI NOV 24 2017

NOTE: "FAIR" INDICATES FEW OR NO CLOUDS BELOW 12,000 FEET WITH NO
SIGNIFICANT WEATHER AND/OR OBSTRUCTIONS TO VISIBILITY.

* THESE STATIONS ARE NOT UNDER NWS QUALITY CONTROL. THEY ALSO MAY NOT
  REPORT WEATHER SUCH AS PRECIPITATION OR FOG.

ILZ001-002-007-009-015-016-024-241400-
NORTHWEST ILLINOIS

CITY           SKY/WX    TMP DP  RH WIND       PRES   REMARKS
MOLINE         CLEAR     45  32  60 S9G18     29.68F
STERLING*      CLEAR     37  31  78 CALM      29.72F
SAVANNA*       CLEAR     35  31  85 S9        29.68F WCI  28
$$

ILZ003-004-008-010-011-017-018-241400-
NORTH CENTRAL ILLINOIS

CITY           SKY/WX    TMP DP  RH WIND       PRES   REMARKS
ROCKFORD       CLOUDY    36  30  79 S12       29.72F WCI  28
FREEPORT*      CLOUDY    37  30  78 S15       29.69F WCI  27
ROCHELLE*      CLEAR     32  29  91 S10       29.73F WCI  23
DE KALB*       CLEAR     32  28  87 S12       29.75F WCI  23
PERU*          CLEAR     33  28  83 S10       29.77F WCI  25
$$

ILZ005-006-012>014-019>023-241400-
NORTHEAST ILLINOIS

CITY           SKY/WX    TMP DP  RH WIND       PRES   REMARKS
CHICAGO-OHARE  PTCLDY    38  28  67 S7        29.75F WCI  33
CHICAGO-MIDWAY PTCLDY    38  29  70 SW12      29.78S WCI  30
AURORA         CLEAR     32  28  85 SE6       29.76F WCI  26
LANSING*       CLEAR     32  29  89 S8        29.81S WCI  25
JOLIET*        CLEAR     34  31  86 S6        29.80S WCI  29
WAUKEGAN       CLEAR     39  30  70 SW15      29.71F WCI  31
DUPAGE AIRPORT CLEAR     33  29  85 S10       29.75F WCI  25
KANKAKEE*      PTCLDY    32  27  81 S8        29.83F WCI  25
WHEELING       CLOUDY    37  29  72 S7        29.76F WCI  32
MORRIS*        CLEAR     31  28  86 S7        29.78F WCI  24
ROMEOVILLE*    CLEAR     31  28  90 S7        29.79S WCI  24
NORTHERLY ISL    N/A     39  27  62 SE8         N/A  WCI  33
$$

LMZ740>746-241400-
SOUTHERN LAKE MICHIGAN

STATION/POSITION SKY/WX   TEMP    WIND        PRES    VSBY  WAVE
                          AIR SEA DIR/SP/G                  HT/PER
                          (F)     (DEG/KT/KT) (MB)    (MI)  (FT/S)
SOUTHERN BUOY              45 47  210/ 21/ 25 1007.4          4/ 5
HARRISON CRIB              41     200/ 15/ 16   N/A
BURNHAM HARBOR             39     190/  6/ 10   N/A
CALUMET HARBOR             37     190/  9/ 12 1007.9F
BURNS HARBOR               36     180/ 11/ 18 1009.5F
MICHIGAN CITY              35     150/ 17/ 20   N/A
$$

ILZ025>027-034>036-040-047-049-050-058-095>099-241400-
WEST-CENTRAL ILLINOIS

CITY           SKY/WX    TMP DP  RH WIND       PRES   REMARKS
QUINCY         PTCLDY    44  33  65 S13       29.76F
GALESBURG*     CLOUDY    37  32  83 SE8       29.74F WCI  30
MACOMB*        CLEAR     36  32  85 S8        29.77F WCI  30
JACKSONVILLE*  PTCLDY    41  30  66 S8        29.80F
PITTSFIELD*    PTCLDY    42  33  68 S7        29.81F
$$

ILZ028>032-037-038-041>044-048-051>054-059>061-241400-
CENTRAL ILLINOIS

CITY           SKY/WX    TMP DP  RH WIND       PRES   REMARKS
PONTIAC        PTCLDY    33  31  91 S10       29.82F WCI  25
BLOOMINGTON    PTCLDY    33  28  81 S12       29.82F WCI  24
DECATUR        PTCLDY    32  27  81 S6        29.86F WCI  26
PEORIA         PTCLDY    36  29  75 S9        29.79F WCI  29
LACON*         CLEAR     37  30  77 S5        29.77S WCI  33
LINCOLN*       CLEAR     33  30  90 S6        29.83F WCI  27
SPRINGFIELD    PTCLDY    41  31  67 S12       29.83F
TAYLORVILLE    PTCLDY    35  28  78 S6        29.86S WCI  30
$$

ILZ033-039-045-046-055>057-062-063-241400-
EAST-CENTRAL ILLINOIS

CITY           SKY/WX    TMP DP  RH WIND       PRES   REMARKS
CHAMPAIGN      PTCLDY    32  27  81 S9        29.87F WCI  24
DANVILLE*      PTCLDY    32  27  80 S7        29.85F WCI  26
RANTOUL*       CLOUDY    33  30  88 S7        29.86S WCI  27
MATTOON        PTCLDY    34  28  79 S9        29.88R WCI  27
PARIS*         PTCLDY    32  28  85 S5        29.91R WCI  27
$$

ILZ079-100>102-241400-
SOUTHWEST ILLINOIS

CITY           SKY/WX    TMP DP  RH WIND       PRES   REMARKS
ALTON          MOCLDY    36  30  80 S6        29.86F WCI  31
BELLEVILLE     CLOUDY    34  28  77 S5        29.86F WCI  30
CAHOKIA*       PTCLDY    33  28  81 CALM      29.86F
SPARTA*        MOCLDY    38  29  68 S7        29.91S WCI  33
$$

ILZ064>066-069>071-074>076-080>082-084>086-088>090-092>094-241400-
SOUTH-CENTRAL ILLINOIS

CITY           SKY/WX    TMP DP  RH WIND       PRES   REMARKS
CARBONDALE     MOCLDY    36  30  79 S7        29.93S WCI  30
CAIRO*         PTCLDY    33  27  79 CALM      29.96S
EFFINGHAM*     PTCLDY    32  29  89 CALM      29.92R
MARION         PTCLDY    37  30  75 S12       29.94R WCI  30
MT. VERNON     CLOUDY    33  29  85 CALM      29.92S
CENTRALIA*     PTCLDY    37  31  78 S8        29.89S WCI  31
SALEM*         PTCLDY    38  29  71 S6        29.90R WCI  33
METROPOLIS*    PTCLDY    29  27  91 CALM      29.97S
$$

ILZ067-068-072-073-078-083-087-091-241400-
SOUTHEAST ILLINOIS

CITY           SKY/WX    TMP DP  RH WIND       PRES   REMARKS
LAWRENCEVILLE  CLOUDY    32  25  75 CALM      29.94S
FLORA*         PTCLDY    32  28  86 S6        29.92R WCI  27
FAIRFIELD*     PTCLDY    35  27  73 CALM      29.92S
HARRISBURG*    CLOUDY    33  28  81 S3        29.94F
ROBINSON*      PTCLDY    31  25  77 S5        29.94S WCI  27
CARMI*         CLOUDY    31  27  84 SE7       29.94S WCI  24
$$

ABBREVIATIONS USED IN REMARKS
   TC - TEMPERATURE IN CELSIUS
  WCI - WIND CHILL INDEX
   HX - HEAT INDEX
  VSB - VISIBILITY
$$





USA.gov is the U.S. government's official web portal to all federal, state and local government web resources and services.